Temp
-5 -4 -4 -4 -4 -4 -4 -4 -4 -4 -3 -4 -4 -4 -4 -4 -4 -5 -4 -5 -5 -5 -6 -6 -6 -6 -5 -5 -6 -7 -8 -8 -8 -8 -6 -5 -5 -5 -5 -5 -6 -5 -5 -5 -5
-5 -5 -5 -4 -4 -4 -4 -4 -4 -4 -3 -4 -4 -4 -4 -4 -4 -5 -5 -5 -6 -6 -6 -6 -6 -6 -5 -6 -6 -8 -8 -6 -5 -7 -6 -6 -5 -5 -6 -5 -5 -6 -6 -6 -5
-5 -5 -5 -5 -4 -4 -4 -4 -4 -4 -3 -3 -4 -4 -4 -4 -5 -4 -5 -5 -6 -6 -6 -6 -6 -7 -9 -7 -6 -7 -8 -6 -5 -5 -5 -7 -9 -6 -6 -6 -6 -6 -6 -6 -6
-6 -5 -5 -5 -5 -4 -4 -4 -4 -4 -4 -4 -4 -4 -4 -4 -4 -5 -5 -5 -6 -6 -6 -7 -7 -8 -9 -9 -6 -8 -6 -6 -6 -6 -5 -6 -8 -9 -9 -7 -6 -6 -6 -6 -6
-6 -6 -5 -5 -5 -5 -5 -5 -4 -4 -4 -4 -4 -4 -4 -4 -4 -5 -5 -6 -6 -6 -6 -7 -7 -9 -9 -8 -7 -7 -8 -7 -6 -7 -7 -6 -7 -8 -9 -7 -6 -6 -5 -6 -6
-6 -6 -6 -6 -5 -5 -5 -5 -5 -5 -4 -4 -4 -4 -4 -4 -4 -5 -5 -6 -6 -6 -7 -7 -7 -7 -9 -8 -8 -7 -7 -7 -7 -8 -8 -7 -7 -8 -8 -7 -7 -7 -6 -6 -6
-7 -7 -6 -6 -6 -5 -5 -5 -5 -5 -5 -5 -5 -4 -4 -4 -5 -5 -5 -6 -6 -6 -7 -7 -6 -6 -8 -9 -6 -6 -7 -8 -8 -7 -7 -7 -8 -8 -7 -7 -7 -7 -7 -7 -6
-7 -7 -7 -6 -6 -5 -5 -5 -5 -5 -5 -5 -5 -4 -4 -4 -5 -5 -5 -6 -6 -6 -7 -6 -6 -6 -6 -7 -7 -7 -7 -8 -8 -7 -7 -7 -8 -8 -8 -7 -7 -7 -7 -7 -7
-7 -7 -7 -6 -6 -6 -5 -5 -5 -5 -5 -5 -5 -5 -4 -5 -5 -6 -6 -6 -6 -7 -7 -6 -6 -6 -8 -8 -8 -8 -7 -8 -8 -7 -7 -8 -8 -8 -8 -7 -7 -7 -7 -7 -7
-8 -7 -7 -7 -6 -6 -6 -6 -6 -5 -5 -5 -5 -5 -5 -5 -5 -6 -6 -6 -6 -7 -6 -6 -6 -6 -9 -8 -7 -8 -7 -8 -8 -8 -7 -8 -8 -8 -8 -7 -7 -7 -8 -8 -8
-8 -8 -7 -7 -7 -6 -6 -6 -6 -6 -6 -6 -5 -5 -5 -5 -6 -6 -6 -7 -7 -7 -6 -6 -6 -9 -8 -8 -7 -7 -8 -8 -8 -7 -7 -8 -8 -8 -7 -7 -7 -8 -8 -8 -8
-8 -8 -8 -8 -7 -7 -6 -6 -6 -6 -6 -6 -6 -5 -6 -6 -6 -7 -7 -7 -7 -7 -6 -7 -6 -9 -8 -7 -7 -8 -8 -8 -8 -7 -7 -8 -8 -8 -7 -7 -7 -7 -7 -8 -8
-9 -8 -8 -8 -8 -7 -7 -7 -7 -6 -6 -6 -6 -6 -6 -6 -7 -7 -7 -7 -7 -7 -7 -9 -8 -9 -7 -7 -6 -8 -8 -8 -8 -8 -7 -8 -7 -8 -7 -7 -7 -8 -7 -7 -7
-9 -9 -9 -8 -8 -8 -7 -7 -7 -7 -7 -7 -6 -6 -6 -6 -7 -7 -7 -7 -7 -7 -7 -7 -8 -7 -7 -7 -9 -8 -8 -8 -8 -8 -7 -7 -7 -8 -7 -7 -7 -7 -7 -7 -8
-9 -9 -9 -9 -8 -8 -8 -8 -8 -7 -8 -7 -7 -7 -6 -6 -7 -6 -6 -6 -6 -6 -7 -7 -8 -7 -6 -8 -9 -8 -8 -8 -8 -8 -7 -7 -8 -7 -8 -7 -7 -7 -7 -7 -7
-9 -9 -9 -9 -9 -8 -8 -8 -8 -8 -9 -7 -7 -7 -7 -7 -6 -6 -7 -6 -6 -6 -7 -8 -7 -7 -7 -9 -8 -8 -7 -8 -8 -7 -7 -7 -7 -8 -8 -7 -7 -7 -7 -7 -7
-10 -9 -9 -9 -9 -9 -9 -8 -8 -9 -8 -7 -7 -7 -7 -7 -7 -7 -6 -7 -7 -7 -7 -7 -7 -7 -7 -7 -7 -7 -8 -7 -6 -6 -8 -7 -7 -7 -8 -7 -7 -7 -7 -7 -7
-10 -9 -9 -9 -9 -9 -9 -9 -8 -9 -8 -7 -7 -7 -7 -7 -7 -7 -7 -7 -6 -7 -8 -8 -8 -7 -7 -7 -8 -8 -7 -6 -7 -6 -8 -7 -6 -7 -7 -7 -7 -7 -7 -7 -7
-10 -10 -9 -9 -9 -9 -9 -9 -9 -9 -9 -7 -7 -7 -7 -7 -7 -7 -7 -7 -7 -7 -8 -8 -8 -8 -8 -8 -9 -8 -8 -7 -6 -6 -6 -7 -7 -6 -7 -7 -7 -7 -7 -7 -7
-10 -10 -9 -9 -9 -9 -9 -9 -10 -9 -8 -8 -8 -7 -8 -7 -7 -7 -7 -7 -7 -7 -7 -8 -7 -8 -8 -7 -8 -8 -7 -7 -6 -7 -7 -7 -7 -7 -6 -7 -7 -7 -7 -7 -7
-11 -10 -9 -9 -9 -9 -9 -9 -8 -8 -8 -8 -9 -8 -9 -9 -7 -8 -9 -8 -7 -7 -7 -8 -8 -8 -7 -7 -8 -7 -7 -7 -7 -7 -7 -7 -7 -7 -8 -7 -7 -7 -7 -6 -6
-11 -10 -10 -10 -9 -9 -9 -10 -8 -8 -8 -8 -8 -9 -9 -9 -9 -9 -9 -9 -8 -8 -7 -7 -8 -8 -8 -8 -7 -8 -8 -7 -7 -8 -7 -7 -7 -8 -7 -7 -7 -7 -7 -7 -7
-11 -10 -10 -9 -10 -9 -9 -8 -8 -8 -8 -8 -8 -8 -9 -9 -9 -9 -9 -9 -8 -8 -9 -9 -8 -8 -8 -8 -7 -7 -8 -8 -7 -7 -8 -7 -7 -8 -8 -7 -7 -7 -6 -6 -7
-11 -11 -10 -10 -10 -9 -10 -9 -9 -8 -8 -8 -8 -8 -9 -9 -9 -9 -9 -9 -8 -8 -9 -9 -8 -8 -8 -8 -8 -8 -8 -8 -8 -8 -7 -7 -9 -8 -8 -7 -7 -7 -7 -6 -6
-12 -11 -11 -11 -10 -10 -9 -10 -9 -9 -9 -9 -8 -8 -8 -9 -9 -9 -9 -9 -9 -9 -9 -9 -9 -9 -9 -8 -8 -9 -9 -9 -8 -9 -9 -8 -9 -9 -7 -7 -7 -7 -7 -7 -6
-12 -11 -11 -11 -10 -10 -10 -9 -9 -9 -9 -9 -9 -10 -9 -10 -9 -9 -9 -9 -9 -9 -9 -9 -9 -8 -9 -9 -9 -9 -9 -9 -9 -9 -9 -9 -8 -8 -7 -7 -7 -7 -7 -7 -7
-11 -12 -11 -11 -11 -10 -10 -10 -9 -9 -9 -9 -10 -10 -10 -9 -9 -9 -9 -9 -9 -9 -10 -9 -9 -9 -8 -8 -8 -9 -8 -9 -9 -8 -8 -9 -9 -8 -7 -8 -7 -7 -7 -7 -7
Height
5895 5896 5897 5899 5900 5901 5903 5904 5905 5906 5907 5909 5910 5912 5914 5916 5917 5918 5919 5921 5921 5923 5925 5927 5928 5929 5930 5931 5932 5932 5940 5936 5935 5934 5931 5929 5929 5928 5927 5925 5924 5923 5922 5922 5922
5893 5894 5895 5896 5897 5898 5900 5901 5903 5904 5905 5906 5908 5910 5911 5914 5915 5917 5919 5920 5921 5923 5926 5927 5928 5930 5931 5933 5933 5933 5941 5935 5935 5935 5933 5931 5930 5929 5933 5927 5924 5923 5922 5922 5922
5890 5891 5892 5894 5894 5896 5897 5899 5900 5901 5903 5904 5905 5907 5909 5911 5914 5915 5917 5919 5921 5922 5925 5927 5929 5930 5934 5934 5934 5934 5937 5936 5936 5936 5935 5933 5934 5929 5930 5931 5925 5924 5922 5922 5922
5887 5888 5889 5890 5892 5893 5895 5896 5898 5899 5900 5902 5903 5904 5906 5908 5911 5914 5916 5918 5920 5922 5925 5927 5928 5930 5937 5938 5935 5935 5936 5937 5937 5936 5934 5932 5932 5934 5929 5928 5925 5924 5923 5921 5920
5883 5885 5886 5888 5889 5890 5892 5894 5895 5897 5898 5899 5900 5901 5903 5906 5909 5912 5915 5918 5920 5922 5924 5926 5927 5930 5936 5935 5936 5935 5938 5938 5937 5937 5935 5933 5932 5931 5930 5927 5926 5924 5922 5920 5919
5880 5881 5883 5884 5886 5887 5889 5891 5893 5894 5896 5897 5897 5898 5901 5903 5907 5910 5913 5916 5919 5921 5924 5925 5926 5928 5931 5934 5934 5936 5936 5938 5938 5938 5937 5935 5934 5932 5931 5928 5926 5924 5922 5919 5917
5875 5877 5879 5881 5883 5884 5886 5888 5890 5891 5893 5894 5895 5896 5898 5900 5905 5908 5911 5914 5917 5920 5922 5924 5925 5928 5932 5935 5935 5936 5937 5939 5940 5938 5937 5936 5935 5934 5931 5928 5926 5923 5921 5918 5916
5871 5873 5875 5877 5879 5881 5883 5884 5886 5888 5890 5892 5893 5894 5896 5899 5901 5906 5909 5912 5916 5919 5920 5922 5924 5926 5930 5933 5936 5937 5939 5944 5941 5937 5935 5936 5939 5934 5931 5928 5925 5923 5920 5917 5915
5867 5869 5871 5874 5876 5878 5880 5882 5884 5886 5888 5889 5891 5892 5894 5896 5898 5902 5906 5910 5914 5917 5919 5921 5924 5927 5932 5934 5942 5940 5946 5941 5942 5937 5935 5936 5937 5933 5930 5928 5926 5923 5919 5917 5914
5862 5865 5867 5870 5873 5875 5877 5879 5881 5884 5885 5887 5888 5891 5892 5893 5895 5900 5904 5909 5913 5916 5919 5921 5924 5927 5932 5939 5942 5944 5944 5942 5940 5938 5934 5937 5939 5932 5930 5927 5926 5922 5918 5915 5914
5858 5860 5863 5866 5869 5872 5875 5877 5880 5882 5882 5885 5886 5887 5888 5891 5894 5899 5903 5908 5911 5914 5918 5922 5924 5929 5938 5939 5934 5936 5937 5939 5939 5934 5933 5936 5934 5934 5929 5928 5926 5923 5919 5915 5911
5854 5856 5859 5863 5866 5869 5871 5874 5877 5880 5881 5883 5884 5885 5886 5889 5893 5897 5902 5907 5910 5914 5918 5923 5924 5931 5934 5932 5933 5934 5936 5940 5938 5933 5932 5933 5933 5931 5929 5928 5925 5923 5920 5916 5912
5849 5852 5855 5860 5863 5867 5869 5872 5875 5878 5880 5882 5883 5884 5886 5889 5892 5896 5901 5905 5909 5914 5918 5923 5928 5929 5929 5930 5931 5933 5937 5938 5937 5933 5931 5932 5930 5929 5929 5927 5925 5922 5919 5916 5912
5845 5848 5852 5857 5862 5864 5867 5871 5874 5877 5881 5884 5885 5886 5887 5889 5893 5896 5901 5906 5910 5914 5918 5921 5927 5926 5927 5928 5931 5936 5936 5931 5931 5930 5935 5932 5917 5927 5926 5925 5924 5921 5918 5916 5912
5841 5844 5848 5853 5858 5863 5867 5870 5874 5878 5884 5885 5885 5887 5889 5892 5897 5900 5902 5906 5909 5913 5918 5921 5923 5924 5925 5927 5930 5932 5928 5928 5930 5930 5933 5934 5924 5906 5928 5922 5921 5920 5918 5914 5911
5837 5840 5845 5850 5856 5861 5865 5870 5874 5879 5881 5883 5886 5888 5891 5894 5897 5899 5904 5907 5909 5913 5916 5919 5920 5922 5923 5925 5925 5925 5926 5927 5928 5930 5932 5928 5930 5913 5916 5921 5919 5917 5916 5914 5911
5833 5837 5843 5847 5854 5860 5864 5869 5875 5878 5881 5884 5886 5888 5892 5895 5898 5901 5904 5907 5910 5913 5915 5917 5918 5919 5921 5922 5923 5924 5926 5931 5933 5933 5929 5928 5930 5919 5922 5921 5920 5916 5914 5912 5910
5830 5834 5839 5845 5851 5858 5863 5868 5873 5880 5880 5882 5885 5888 5892 5894 5897 5900 5903 5905 5908 5911 5920 5917 5918 5918 5919 5920 5924 5926 5929 5931 5932 5931 5925 5929 5933 5924 5923 5921 5918 5916 5913 5911 5909
5827 5832 5836 5842 5849 5855 5861 5867 5875 5877 5878 5881 5885 5888 5891 5893 5896 5899 5901 5904 5906 5910 5916 5920 5922 5919 5919 5920 5921 5926 5926 5927 5930 5931 5931 5926 5926 5924 5921 5920 5918 5916 5913 5910 5908
5825 5829 5834 5840 5846 5852 5858 5863 5868 5869 5875 5880 5884 5886 5889 5891 5894 5896 5898 5901 5904 5907 5910 5919 5922 5919 5918 5917 5918 5919 5924 5928 5928 5923 5926 5919 5921 5915 5917 5917 5916 5914 5911 5909 5907
5822 5826 5830 5836 5843 5849 5855 5861 5864 5869 5873 5877 5883 5884 5889 5890 5891 5893 5898 5900 5901 5904 5907 5913 5918 5917 5916 5916 5921 5921 5923 5924 5923 5922 5923 5922 5916 5911 5914 5915 5915 5912 5910 5908 5905
5820 5822 5826 5832 5840 5846 5852 5854 5860 5866 5871 5874 5878 5882 5885 5889 5889 5894 5899 5898 5897 5901 5905 5908 5916 5916 5918 5915 5916 5918 5919 5919 5925 5919 5920 5921 5915 5912 5912 5913 5912 5909 5908 5905 5903
5815 5818 5822 5827 5835 5842 5846 5850 5858 5863 5868 5871 5875 5878 5882 5888 5888 5893 5896 5893 5894 5898 5902 5906 5910 5907 5911 5915 5915 5917 5919 5917 5920 5922 5921 5921 5919 5912 5909 5909 5908 5906 5905 5903 5900
5811 5815 5818 5823 5829 5834 5843 5849 5855 5860 5864 5868 5872 5875 5878 5882 5886 5889 5893 5889 5892 5895 5897 5900 5908 5912 5907 5901 5906 5912 5914 5913 5914 5917 5919 5920 5911 5904 5901 5904 5905 5903 5901 5899 5896
5807 5814 5812 5820 5827 5833 5837 5844 5850 5856 5861 5864 5868 5872 5876 5879 5884 5888 5890 5888 5890 5892 5896 5898 5904 5901 5897 5901 5901 5909 5909 5909 5909 5909 5909 5912 5910 5910 5897 5900 5900 5899 5898 5895 5893
5805 5807 5811 5814 5820 5828 5834 5839 5847 5853 5857 5862 5865 5870 5873 5878 5882 5885 5887 5885 5887 5889 5893 5897 5900 5900 5901 5903 5905 5905 5905 5905 5905 5905 5904 5904 5904 5896 5898 5896 5895 5895 5893 5891 5888
5802 5806 5810 5814 5821 5827 5832 5837 5843 5849 5853 5857 5864 5869 5871 5876 5876 5877 5881 5884 5880 5886 5891 5896 5900 5895 5900 5898 5899 5902 5902 5903 5901 5899 5900 5900 5894 5893 5894 5893 5891 5890 5888 5886 5883
Wind_Speed
14 14 13 13 13 13 12 12 12 13 13 15 16 14 14 12 11 11 9 4 8 8 8 6 4 1 4 3 5 11 11 5 6 5 8 8 9 10 10 10 8 6 5 3 3
15 15 15 14 14 14 13 12 11 12 13 14 15 16 15 13 12 11 9 8 9 9 7 7 4 3 5 4 7 20 7 3 6 5 6 8 9 11 12 11 8 7 7 6 5
16 16 15 15 15 15 14 13 12 12 11 13 15 15 16 15 14 10 11 9 10 9 7 6 4 3 4 3 8 12 8 6 6 5 6 6 12 12 13 6 11 9 6 6 5
17 16 16 15 15 15 15 14 13 12 11 12 15 17 17 17 20 12 12 11 11 9 7 7 5 6 4 2 11 11 7 5 5 6 9 7 4 6 10 10 12 14 13 10 5
18 17 16 15 15 16 15 14 14 14 11 11 12 15 17 19 16 15 14 13 12 11 8 8 8 7 4 7 12 12 4 5 3 4 6 8 7 6 7 11 12 14 14 14 12
19 18 17 16 16 15 15 16 14 14 12 12 12 13 16 19 12 15 16 15 13 11 10 10 12 15 12 9 11 9 7 2 3 3 4 6 7 9 9 11 12 12 13 14 16
21 20 19 17 17 16 16 16 15 13 13 13 13 13 13 19 15 17 17 17 14 12 12 14 16 17 8 5 7 7 4 0 5 4 5 6 18 11 12 13 14 16 14 14 14
21 21 19 18 18 17 17 17 15 14 14 14 13 14 15 11 16 18 17 17 15 13 13 17 17 14 15 13 8 3 4 2 7 5 5 4 6 14 11 13 16 17 17 16 16
20 22 21 19 18 17 16 16 15 14 14 14 14 14 14 14 19 20 20 18 16 14 16 16 14 16 10 9 1 6 3 4 5 6 3 6 2 9 10 11 14 17 20 19 18
20 21 22 21 18 16 16 15 14 14 15 14 14 14 15 19 19 20 21 18 16 17 17 16 15 15 7 7 3 11 4 6 5 10 4 5 4 19 11 12 17 21 22 20 20
20 21 23 21 19 17 17 15 15 15 14 13 13 13 13 15 16 18 20 18 18 22 19 14 16 11 7 13 23 20 6 5 9 9 4 3 6 10 10 12 15 16 20 19 20
19 21 23 22 19 17 17 16 14 14 15 12 11 12 14 15 18 20 20 19 24 22 18 15 13 12 16 14 13 8 5 5 12 10 7 2 4 9 9 9 8 16 21 19 18
19 22 24 22 18 18 18 17 17 16 15 13 11 12 16 20 21 21 22 25 25 21 18 15 7 14 15 13 8 3 6 9 10 8 11 4 5 10 9 8 8 19 21 17 15
19 23 25 23 20 19 20 20 19 18 16 14 14 13 15 17 20 24 26 26 23 21 18 15 15 14 14 10 6 3 11 12 8 4 3 11 11 4 10 5 10 20 22 17 12
19 23 27 25 23 22 22 23 22 20 14 17 17 16 17 20 22 21 22 22 22 18 16 12 14 13 9 9 10 10 14 9 8 6 4 11 20 6 8 10 18 20 20 18 14
20 24 28 27 25 25 25 25 23 21 12 19 18 17 17 17 18 20 18 17 17 16 14 15 15 12 9 8 10 8 6 2 5 4 9 12 11 31 12 12 17 19 19 16 10
20 24 30 30 28 27 26 26 23 12 17 19 18 17 17 17 18 17 16 15 13 12 12 12 11 10 8 10 5 3 3 1 6 9 18 3 4 18 7 17 16 18 18 16 10
19 24 31 33 30 29 28 27 25 12 14 18 18 17 16 16 17 17 17 16 16 15 8 11 12 8 6 7 9 10 6 8 6 9 8 5 4 23 18 16 16 15 15 15 14
19 24 31 34 33 32 30 26 13 12 18 17 16 16 16 17 17 17 16 16 16 16 11 13 7 13 12 11 9 5 11 12 11 8 6 12 10 15 16 16 15 15 14 15 15
19 23 29 36 36 35 32 28 20 27 23 18 14 14 15 16 17 18 19 19 20 17 19 13 14 12 11 10 9 14 8 4 9 11 8 15 8 14 13 17 17 14 14 15 17
18 23 29 36 37 37 34 27 28 23 21 19 16 13 13 16 15 16 16 14 19 20 19 13 12 12 10 7 10 5 6 6 6 8 6 11 19 26 16 18 19 14 15 15 18
19 24 30 36 38 37 36 33 31 25 22 20 18 14 13 16 15 15 13 11 19 19 19 18 12 7 10 15 11 15 15 14 7 19 18 7 22 23 27 22 21 19 17 18 22
20 23 31 36 39 39 39 37 30 26 23 21 18 15 14 15 17 16 13 21 21 22 19 17 18 19 12 9 16 15 12 12 11 13 12 11 21 28 32 25 22 22 20 20 22
17 21 30 37 42 43 36 33 31 28 25 22 18 17 17 16 17 17 17 23 19 20 24 21 16 13 28 30 13 15 11 11 11 11 13 11 19 23 31 20 21 22 23 23 25
18 21 33 36 39 39 42 37 34 30 24 22 19 15 14 13 18 15 18 19 19 20 16 19 15 20 20 16 14 8 10 13 15 15 15 16 18 16 35 23 23 23 24 26 27
18 21 28 38 41 41 40 38 33 28 25 22 20 14 14 13 18 14 17 19 15 18 22 15 22 30 19 16 18 16 16 15 14 15 17 16 16 32 24 25 26 26 27 28 29
19 22 25 30 31 35 34 34 32 30 26 26 23 18 15 22 22 28 23 18 17 19 16 15 17 21 15 22 23 17 16 13 20 20 19 15 28 28 21 25 27 28 29 29 29
Wind_Direction
241 241 241 239 237 234 231 230 233 233 230 226 225 221 218 214 216 221 225 187 193 190 175 143 137 34 25 2 105 105 75 107 91 68 42 13 23 14 13 22 20 22 352 355 321
242 241 239 239 238 237 234 232 231 232 234 232 230 227 228 221 217 220 213 194 184 174 163 146 127 63 39 86 130 100 192 119 73 70 47 13 21 7 52 6 8 16 6 3 339
243 242 239 237 236 235 235 234 233 230 234 234 233 231 228 225 221 214 205 192 178 165 163 148 122 85 75 100 136 133 170 115 85 52 40 38 15 360 54 332 4 6 354 338 327
239 242 241 238 236 235 233 233 233 231 234 234 232 229 226 223 223 188 195 187 179 172 168 150 139 99 149 177 150 106 125 100 66 27 21 23 20 33 341 356 357 3 13 16 324
234 237 241 239 236 235 232 231 229 229 229 237 232 228 225 224 222 202 195 188 185 178 167 160 159 159 137 169 142 131 168 127 77 36 357 359 7 356 344 338 350 355 359 2 1
235 233 236 239 236 235 233 230 227 225 227 234 233 229 225 224 217 200 191 189 188 188 164 172 165 171 168 163 141 178 135 94 51 347 322 342 10 353 330 335 342 349 359 358 355
235 233 232 237 239 237 234 227 223 224 227 231 230 230 229 235 215 202 195 193 190 184 170 182 175 166 162 121 153 135 89 14 324 309 333 351 13 332 333 330 331 339 350 351 348
239 233 233 233 239 238 235 226 222 224 224 225 228 230 230 232 218 202 198 196 190 183 187 184 182 176 164 161 135 125 47 23 276 309 306 23 339 314 305 313 320 324 323 325 333
239 235 232 231 233 233 231 218 218 224 220 221 227 227 228 215 212 202 195 198 189 180 191 186 179 163 164 132 232 320 193 254 309 314 326 345 307 307 294 310 317 327 321 317 317
236 233 228 229 228 225 218 210 215 219 216 220 225 225 220 218 215 201 195 195 183 191 184 178 163 149 167 182 203 223 207 284 284 270 323 345 337 286 296 314 342 352 350 331 313
233 228 226 223 224 219 211 212 211 209 209 214 220 219 217 210 201 196 190 186 186 184 178 171 170 195 186 230 221 215 233 273 288 285 335 318 289 278 296 314 354 8 4 351 336
233 223 219 218 217 214 207 206 200 198 196 202 209 204 196 189 183 184 183 184 181 176 175 183 192 196 218 199 195 203 271 309 279 291 27 322 278 278 308 349 1 3 356 353 346
233 220 211 211 208 203 196 190 186 182 183 180 182 183 183 180 175 173 179 177 175 173 180 186 221 201 187 192 204 268 276 248 254 270 31 345 261 309 307 318 350 354 350 348 343
232 216 203 202 199 191 184 178 175 171 168 166 163 157 158 164 170 171 168 169 173 175 182 183 221 184 195 204 216 227 243 255 256 265 324 285 263 100 343 295 325 334 338 345 339
227 211 199 193 193 184 178 173 170 165 152 172 167 160 158 158 156 166 170 175 174 182 182 190 195 206 213 208 235 201 252 243 249 252 277 292 287 121 327 308 310 321 327 339 341
221 207 196 189 189 182 175 172 169 166 200 178 175 170 167 168 173 171 176 182 182 181 185 183 211 213 222 224 226 224 192 241 268 247 253 235 288 305 63 328 315 316 332 341 347
213 204 193 189 187 181 177 174 171 153 192 183 178 177 176 178 178 183 185 185 188 194 198 216 212 227 220 202 157 192 198 273 281 272 254 34 323 302 355 318 305 313 329 340 336
208 201 193 190 186 184 179 178 176 197 183 185 184 184 185 189 193 193 197 199 201 193 224 227 236 251 201 204 199 266 226 217 272 253 241 210 280 270 303 301 297 305 319 329 327
203 199 193 193 187 187 186 184 177 201 200 189 192 195 202 205 208 210 211 211 215 210 171 230 214 241 214 230 206 179 247 215 252 272 278 219 234 296 275 292 296 298 312 320 325
201 197 195 196 191 190 191 179 204 191 191 190 197 204 210 219 219 220 222 220 220 211 175 204 202 242 233 195 199 184 196 240 209 229 247 251 176 230 259 295 300 294 306 310 318
201 198 197 196 195 193 195 197 205 200 198 195 187 219 209 221 218 221 228 224 219 212 206 185 196 202 236 193 207 157 203 254 240 285 284 305 298 277 305 292 292 290 294 305 313
202 201 199 197 198 196 197 204 203 205 205 208 212 202 213 220 204 208 206 226 216 211 199 189 177 237 211 205 196 193 256 174 253 269 228 246 291 300 292 288 290 287 296 307 316
209 209 201 198 196 198 202 207 206 206 210 212 213 208 197 206 205 186 196 218 205 198 200 194 171 239 206 260 260 234 247 220 252 260 302 286 294 289 287 285 279 283 289 299 308
214 205 200 198 198 196 205 208 208 208 213 217 216 211 201 196 208 198 205 236 208 196 198 188 196 224 235 212 193 202 258 256 255 249 252 259 284 306 285 264 271 279 288 298 307
206 179 194 196 198 202 202 203 208 207 208 212 216 217 202 206 200 200 201 240 210 218 206 207 213 261 261 271 197 232 266 276 265 262 254 242 251 260 260 279 276 278 286 295 303
205 200 192 196 195 200 205 210 207 202 204 206 211 219 206 196 200 199 204 232 217 208 207 200 227 224 208 248 250 262 270 268 278 279 267 264 266 259 265 268 271 277 287 293 298
201 198 192 196 197 202 205 208 206 203 205 199 207 196 209 204 180 220 202 211 212 227 215 220 226 245 244 237 241 260 274 266 255 283 278 267 256 261 264 267 271 278 285 293 297